Regional Weather Roundup
Issued by NWS

Home | Current Version | Previous Version | Text Only | Print | Product List | Glossary Off
Versions: 1 2 3 4 5 6 7 8 9 10 11 12 13 14 15 16 17 18 19 20 21 22 23 24 25 26 27 28 29 30 31 32 33 34 35 36 37 38 39 40 41 42 43 44 45 46 47 48 49 50

000
ASUS44 KMEG 221710
RWRTN
TENNESSEE HOURLY STATE WEATHER ROUNDUP
NATIONAL WEATHER SERVICE MEMPHIS TN
1200 PM CDT TUE APR 22 2014

TNZ002-004-019-021-049-052-054-088>092-221800-
WEST TENNESSEE

CITY           SKY/WX    TMP DP  RH WIND       PRES   REMARKS
MEMPHIS INTL   CLOUDY    70  61  73 N12       29.96S
NWS MEMPHIS      N/A     68 N/A N/A MISG        N/A
JACKSON        CLOUDY    68  59  73 N13       29.94F
DYERSBURG      SUNNY     72  52  49 N10       29.96F
UNION CITY     MOSUNNY   70  55  60 N12       29.93F
PARIS          PTSUNNY   68  56  65 N8        29.94S
LEXINGTON      CLOUDY    66  61  82 NE7       29.92F
SAVANNAH       CLOUDY    67  65  93 NW8       29.93
$$

TNZ008-025-027-028-033-062-065-066-221800-
NORTH MIDDLE TENNESSEE

CITY           SKY/WX    TMP DP  RH WIND       PRES   REMARKS
NASHVILLE      CLOUDY    68  61  78 W5        29.91F
DICKSON        PTSUNNY   66  61  82 VRB3      29.91F
PORTLAND         N/A     70  59  68 NW8       29.88
CLARKSVILLE    PTSUNNY   70  60  70 N14       29.91S
SMYRNA         CLOUDY    67  62  84 NW7       29.91F
MURFREESBORO   CLOUDY    64  61  90 W6        29.91S
COOKEVILLE     PTSUNNY   64  61  88 CALM      29.90S
LIVINGSTON     CLOUDY    60  59  97 NW6       29.91S
GALLATIN       PTSUNNY   71  63  76 CALM      29.90F
CROSSVILLE     CLOUDY    60  58  92 W6        29.91F FOG
$$

TNZ061-075-076-078-094-096-097-221800-
SOUTH MIDDLE TENNESSEE

CITY           SKY/WX    TMP DP  RH WIND       PRES   REMARKS
LEWISBURG      CLOUDY    65  62  90 W6        29.91F
FAYETTEVILLE   PTSUNNY   67  59  75 VRB3      29.92F
TULLAHOMA      PTSUNNY   64  61  88 NW13      29.93S
WINCHESTER     CLOUDY    68  59  73 W5        29.91F
MCMINNVILLE    CLOUDY    64  64 100 W8        29.91F
COLUMBIA       CLOUDY    66  66 100 N5        29.91F
SHELBYVILLE    CLOUDY    66  63  88 NW7       29.93S
$$

TNZ017-018-042-046-047-221800-
NORTHEAST TENNESSEE

CITY           SKY/WX    TMP DP  RH WIND       PRES   REMARKS
TRI CITIES     LGT RAIN  63  57  81 W6        29.87F
ELIZABETHTON   RAIN      57  55  94 CALM      29.87S FOG
$$

TNZ012-013-036-069-073-074-221800-
CENTRAL EAST TENNESSEE

CITY           SKY/WX    TMP DP  RH WIND       PRES   REMARKS
KNOXVILLE      CLOUDY    62  60  93 SW12      29.88F
OAK RIDGE      CLOUDY    64  60  87 VRB5      29.89F
$$

TNZ083-085-099-221800-
SOUTHEAST TENNESSEE

CITY           SKY/WX    TMP DP  RH WIND       PRES   REMARKS
CHATTANOOGA    LGT RAIN  68  59  73 SW5       29.90F
$$

SKY/WX REPORTED AS FAIR MEANS FEW OR NO CLOUDS BELOW
12 THOUSAND FEET.




USA.gov is the U.S. government's official web portal to all federal, state and local government web resources and services.